OBJECT D, 64879

Orbit data source: Space-Track

You're viewing an Uncataloged Satellite

Recently launched and/or uncataloged satellites may have evolving metadata. Metadata may include but not limited to: Owner, Maufacturer, Bus, Motor, and Mission.

OBJECT D, 64879 is a satellite in SSO that was launched on Fri, 25 Jul 2025 UTC via a SOYUZ-2-1B launch vehicle from the Vostochny Cosmodrome (VOSTO). Unknown objects in Earth's orbit typically refer to objects detected orbiting the Earth but have not yet been identified or cataloged. These objects could be anything from previously untracked satellites, spent rocket stages, debris from satellite collisions, or even natural meteoroids temporarily captured by Earth's gravity.

Loading next visibility...
Identifier
64879, 2025-155D
Orbit
SSO
Country
Flag of TBDTBD
Related business
Flag of RUGeoscan (RU)
Manufacturer
SPUT/GEOSK
Mission
Operational Commercial Science
Bus & Motor
CUBESAT 3U, Unknown motor
Mass
3 kg wet, 3 kg dry
Launch date (UTC)
2025-07-25 (9 months ago)
Launch vehicle
SOYUZ-2-1B
Launch site
Vostochny Cosmodrome (VOSTO)
Object type
Unknown
Shape & HBR
Box, 1.1 m
Radar Cross Section
0.035 m², Small (<0.1 m²)

Expand to show TLE details & history
Last TLE update: 7 hours ago

TLE from 7 hours ago
0 OBJECT D
1 64879U 25155D   26121.14815035  .00012852  00000-0  45508-3 0  9994
2 64879  97.4529  89.5611 0007440   1.2198 358.9059 15.29237281 73579
Epoch: 2026-05-01T03:33Z
TLE epoch observation values (Epoch: 2026-05-01T03:33:20.190Z)
Latitude
0.00001°
Longitude
177.14241°
Altitude
476.091 km
Speed
7.631 km/s
True Right ascension
05h 58m 14s
True Declination
0° 00' 00"
Sunlit
Object was in daylight at epoch
Visualization orbit readout
Latitude
Unknown
Longitude
Unknown
Altitude
Unknown
Speed
Unknown
Apparent Right ascension
Unknown
Apparent Declination
Unknown
Sunlit
N/A
Visualization observer readout
Local Sidereal Time
18:12:09
Azimuth
Unknown
Elevation
Unknown
Doppler factor
Unknown
Orbital elements
Apogee altitude
480.145 km
Perigee altitude
469.948 km
Semi-major axis
6,853.184 km
Eccentricity
0.00074
Inclination
97.4529°
RAAN
89.5611°
Arg. of periapsis
1.2198°
True anomaly
358.90427°
Mean anomaly
358.9059°
Eccentric anomaly
358.90509°
Mean motion
3.82564 °/min
Orbital period
94.1 mins
BSTAR
0.00045508
Loading maneuver chart data...
Computing Atmospheric mass density...
Loading historical data...
Loading historical data...
Loading historical data...
Loading historical data...
Loading historical data...
Loading historical data...
Loading historical data...

Documentation

Showing up to 5 results
|